GFSMA_925_rhum_000.txt.gz
RH
61 60 62 63 64 62 65 61 60 53 51 51 42 37 33 30 30 30 26 26 33 35 36 62 67 71 70 64 63 66 68 70 71 72 73 74 76 78 78 77 77 76 76
62 60 56 58 59 60 60 58 56 53 50 52 52 42 36 32 30 29 31 31 29 29 28 28 53 58 60 62 62 62 65 66 68 69 70 72 73 75 78 78 78 78 78
62 63 58 55 58 60 63 62 60 57 53 52 53 53 42 37 35 32 30 30 32 33 33 32 42 49 53 55 58 60 61 62 63 65 66 68 69 71 74 75 75 75 73
63 64 65 58 57 61 63 64 64 62 60 56 55 55 50 42 38 36 34 32 31 32 32 33 32 38 51 54 56 56 59 60 61 63 65 68 70 69 68 71 73 75 77
64 66 67 67 61 61 64 65 65 64 64 63 60 57 54 53 50 43 38 37 35 34 33 33 32 32 32 34 54 56 58 59 61 63 65 67 69 69 71 74 76 76 77
64 66 68 70 70 63 63 66 66 65 64 63 62 62 59 55 52 51 51 50 46 43 39 38 37 38 37 38 40 56 58 60 61 64 66 69 69 72 76 78 79 79 79
66 66 69 72 74 72 65 66 69 68 66 64 65 64 62 58 56 53 52 51 51 52 52 49 47 44 44 44 40 41 61 64 66 66 67 70 72 77 78 79 82 82 79
72 70 69 74 76 78 76 69 69 73 73 72 72 74 84 72 65 62 61 61 60 58 58 57 54 45 44 45 45 42 41 58 66 68 72 76 78 81 84 84 82 79 73
74 75 74 75 79 80 80 79 73 71 76 74 71 73 89 85 79 55 58 62 62 60 59 59 56 52 49 48 45 48 50 50 53 73 77 81 85 84 84 83 78 72 71
69 74 76 77 77 80 83 81 80 76 75 76 76 70 69 65 84 80 55 50 53 53 50 48 47 46 44 47 56 57 53 51 54 65 80 84 81 85 82 78 75 80 85
58 69 75 78 80 83 82 84 83 78 77 78 78 74 79 76 75 78 81 69 57 54 53 49 48 53 54 53 56 57 54 54 57 66 80 81 84 81 79 80 92 90 85
51 54 64 76 80 84 86 85 86 85 84 81 78 78 78 78 80 80 83 80 74 64 62 59 58 56 54 54 57 56 55 57 60 66 83 83 81 80 77 80 88 86 82
56 56 57 62 76 81 84 87 89 88 89 88 83 80 78 78 76 76 80 79 80 71 67 64 65 63 60 57 55 57 59 60 61 63 81 81 80 73 68 71 82 80 81
51 55 58 63 65 72 77 81 86 88 89 90 91 87 85 84 82 76 76 76 82 75 70 66 63 65 63 62 59 57 61 61 62 64 66 80 75 66 62 62 74 81 81
39 40 42 45 53 58 66 72 74 76 82 86 88 91 92 86 83 82 83 80 78 85 76 66 70 64 60 60 58 57 60 61 63 64 64 64 65 60 60 60 72 79 81
41 40 40 41 42 45 48 54 64 70 73 77 80 84 87 89 87 88 86 83 81 81 86 68 68 66 63 62 65 63 62 63 65 65 63 63 63 59 59 57 68 80 79
49 48 46 44 42 43 44 47 51 58 66 73 76 80 81 79 82 86 88 84 85 82 88 76 74 73 68 65 71 72 70 72 67 62 66 70 61 59 57 59 77 75 79
57 56 55 54 52 50 48 48 50 55 62 67 70 73 73 74 78 84 88 86 85 83 85 86 77 80 82 75 79 81 80 68 65 65 72 74 76 84 81 69 73 78 82
56 56 58 59 59 57 55 53 51 52 57 62 68 72 73 74 77 76 84 88 84 85 88 90 85 82 90 90 84 87 84 70 71 68 83 85 83 79 83 62 77 80 80
54 54 54 54 56 57 57 56 52 56 61 65 68 71 75 78 79 77 77 85 90 88 87 91 88 90 92 89 86 91 87 81 75 71 75 71 68 72 78 68 75 76 79
54 53 53 53 53 53 52 53 56 62 68 69 70 71 73 76 77 79 84 83 86 92 88 91 91 96 97 97 94 93 93 88 89 75 68 65 62 59 50 63 71 78 81
52 51 52 55 54 54 54 54 56 69 71 74 75 75 77 79 81 81 80 79 86 88 87 85 93 96 95 92 96 97 95 95 94 77 68 65 62 53 50 52 53 64 66
44 49 51 53 55 54 55 54 59 64 76 76 78 80 81 80 80 81 80 79 88 88 96 97 96 96 91 94 98 99 97 90 83 73 70 59 49 52 48 50 63 64 66
45 44 46 51 53 55 53 50 53 65 69 76 80 82 83 84 87 84 83 84 92 95 99 98 100 98 99 94 96 95 97 93 81 79 63 71 53 53 53 55 61 62 64
42 39 38 42 51 50 43 41 41 56 69 75 76 77 76 81 82 85 99 98 89 97 98 100 99 100 100 99 100 100 98 90 83 74 60 54 56 54 54 53 53 57 61
34 36 34 36 40 42 37 36 40 58 61 71 72 73 85 85 86 89 97 99 97 95 98 100 100 100 99 100 100 98 94 86 94 91 73 59 60 59 73 55 51 54 57

GFSMA_925_rhum_003.txt.gz
RH
68 68 66 68 68 72 68 68 69 69 58 55 46 46 44 39 41 38 33 29 34 45 64 68 68 72 75 75 69 67 69 71 72 73 74 75 76 77 78 78 78 78 77
66 66 65 63 64 68 66 60 66 65 62 56 54 51 41 36 33 31 31 30 27 26 30 58 62 64 66 67 68 68 66 68 72 72 74 74 75 76 77 79 78 78 79
62 64 65 64 60 60 63 62 60 62 60 54 51 53 54 48 40 35 30 28 30 31 31 33 49 56 57 60 60 62 64 65 67 68 70 71 72 72 74 75 76 77 77
61 64 64 64 62 58 60 62 63 64 63 60 57 53 53 54 53 43 38 37 34 30 30 31 32 36 46 55 56 57 58 61 65 67 69 70 71 72 71 70 70 72 75
58 63 65 64 66 62 60 62 64 66 67 66 62 60 56 55 55 53 47 42 39 37 35 34 32 32 32 37 51 54 56 58 61 65 68 70 72 73 71 71 72 74 78
61 62 67 69 70 70 64 63 66 68 68 69 67 69 65 62 60 56 53 53 51 44 39 39 37 36 35 35 38 50 52 55 60 64 67 70 72 74 71 70 74 78 79
69 67 66 69 73 73 71 70 65 70 72 70 70 73 68 65 64 62 60 57 53 52 51 51 47 44 42 42 40 41 48 54 58 63 66 70 72 73 71 72 77 79 81
74 75 74 71 72 78 79 76 73 75 77 76 74 82 81 73 69 68 69 65 61 57 56 52 51 52 52 51 49 48 45 53 60 62 66 70 73 71 73 76 79 82 84
72 75 76 78 77 79 82 84 82 79 78 79 78 74 93 92 88 61 66 68 68 67 66 63 61 58 57 57 58 54 45 44 57 63 67 71 72 74 78 80 84 83 81
65 66 71 77 79 80 82 86 87 86 82 80 84 84 75 71 87 89 64 58 59 60 63 61 62 62 60 59 57 53 50 44 46 63 69 73 76 79 82 86 82 83 80
57 58 65 73 76 80 82 85 88 90 93 86 82 80 87 82 79 81 82 68 68 67 60 55 57 59 51 46 44 43 43 46 55 63 70 72 75 82 82 84 84 81 86
52 56 62 70 70 71 78 81 85 85 87 93 91 84 84 86 80 87 88 80 75 68 72 68 59 54 54 52 49 50 52 50 53 60 68 73 78 82 82 86 83 90 92
38 38 40 41 56 76 81 86 89 85 82 88 89 91 88 88 83 79 78 80 75 66 71 73 71 66 63 61 58 55 54 52 54 56 69 73 78 83 87 85 89 91 88
44 43 41 39 39 39 50 69 82 82 81 83 83 88 92 91 89 90 84 82 83 72 68 68 68 68 68 67 65 62 58 55 53 56 58 75 79 84 86 90 91 88 85
46 44 42 44 43 43 42 41 43 55 66 73 74 76 80 83 86 88 90 86 85 93 78 62 65 67 68 67 64 64 62 58 55 56 60 62 71 84 84 84 76 78 86
47 47 46 47 47 47 47 49 48 46 47 52 65 77 77 78 84 86 86 87 89 90 94 71 68 67 67 66 66 64 63 63 57 59 65 63 66 82 81 78 66 68 80
48 48 49 49 50 53 56 57 56 57 56 55 53 58 70 74 80 82 82 84 93 91 93 80 76 72 72 70 68 65 67 64 63 68 66 67 71 84 84 76 69 69 81
54 55 54 54 55 55 56 58 60 59 61 62 64 67 70 73 76 79 83 83 83 88 90 88 79 77 78 78 73 72 71 73 74 74 75 72 80 94 98 96 79 80 85
58 59 60 60 57 56 56 56 56 60 62 63 67 69 73 76 79 78 81 85 84 84 86 88 85 81 84 89 87 84 82 80 84 86 86 83 90 96 97 98 92 91 83
54 58 57 54 54 60 58 55 59 55 59 68 71 73 75 79 81 81 84 85 85 87 86 84 86 91 87 96 94 89 95 92 92 93 98 100 100 100 100 99 96 87 86
50 50 49 46 59 53 58 53 54 62 72 74 76 74 74 77 79 80 85 90 92 90 89 86 84 83 92 99 97 95 96 96 100 100 100 100 100 100 98 97 94 92 82
47 47 47 51 49 57 52 49 52 70 73 60 59 66 76 83 84 85 85 87 91 98 90 88 85 87 84 91 96 98 96 99 98 100 99 100 99 99 95 94 88 80 80
41 40 50 44 48 47 44 53 53 48 39 46 65 66 81 68 62 72 81 87 92 93 95 99 96 91 93 91 96 93 94 92 90 99 98 97 100 100 92 84 66 68 69
38 38 40 36 41 36 38 47 47 42 43 48 60 62 72 57 66 82 91 92 91 90 91 98 95 90 92 99 100 98 92 98 100 100 100 96 100 97 91 77 70 66 68
36 32 32 36 31 37 38 48 41 45 46 49 61 68 51 56 63 73 87 92 92 94 95 97 98 99 93 90 100 100 100 98 96 97 96 94 97 95 84 60 52 68 67
33 32 30 31 35 38 43 34 31 42 52 55 71 66 62 60 65 74 84 89 96 93 95 96 98 99 100 99 99 100 99 97 98 95 98 95 98 95 88 59 57 55 60

GFSMA_925_rhum_009.txt.gz
RH
75 71 72 73 72 75 77 83 82 78 75 68 69 69 65 41 38 40 44 45 40 37 60 72 77 76 75 76 75 73 71 72 74 75 76 76 78 78 77 76 76 76 76
69 68 71 73 73 73 71 76 77 75 72 74 70 69 69 63 54 42 44 44 43 42 34 58 68 71 71 73 75 79 80 79 77 76 77 78 79 79 78 78 78 78 77
67 68 68 70 71 72 72 71 71 71 71 71 73 69 66 66 65 60 56 52 49 43 40 42 59 61 64 64 67 71 75 80 84 84 80 80 81 82 83 80 80 80 79
60 65 66 64 64 68 69 71 70 70 70 69 68 68 66 64 63 63 61 55 53 52 52 44 37 39 52 60 53 57 64 70 74 78 83 86 82 82 84 85 85 84 82
58 60 61 59 60 64 68 70 71 74 76 76 75 71 71 69 67 67 66 65 63 60 56 54 54 53 44 44 50 51 52 55 60 67 72 76 81 84 84 84 84 85 84
62 61 60 60 62 64 66 70 73 76 77 79 80 80 80 79 78 75 73 73 73 70 67 64 61 57 56 54 49 54 56 57 56 59 62 67 72 75 79 81 83 82 81
70 69 69 70 70 70 72 77 81 84 85 85 92 86 84 84 82 82 80 79 78 76 76 73 70 66 63 61 60 59 60 62 63 61 61 62 65 69 72 75 78 81 82
79 82 84 84 85 85 85 85 88 91 91 88 87 88 93 75 71 69 73 76 70 71 75 73 73 72 69 67 66 64 62 67 70 69 68 67 66 67 69 71 73 76 84
63 66 69 77 85 95 95 93 92 95 95 91 89 90 99 95 88 66 66 68 69 67 61 62 64 63 62 63 63 62 61 60 64 72 72 72 72 73 74 75 74 76 78
46 46 46 47 49 68 95 99 99 100 100 98 95 92 91 86 93 90 70 72 71 71 68 68 64 63 63 63 62 62 62 62 61 74 76 74 74 73 71 73 73 75 77
44 39 36 35 36 38 42 49 70 98 95 97 98 95 96 98 97 97 94 78 74 75 75 75 73 72 71 67 66 66 66 65 64 69 79 79 78 73 70 67 68 72 79
42 39 36 35 36 40 45 46 45 48 60 83 93 93 92 90 88 93 96 90 87 82 77 77 78 76 74 74 72 70 68 66 65 64 79 78 77 74 71 68 70 76 81
44 42 38 37 38 42 46 51 50 47 53 59 67 78 84 88 87 86 87 86 84 74 82 81 82 77 76 74 73 71 71 69 65 62 74 78 78 76 74 72 71 76 84
48 47 44 46 50 52 56 59 57 58 63 62 64 65 73 80 81 87 88 90 85 79 70 70 66 76 77 76 76 72 68 74 72 68 64 69 73 77 76 73 74 79 81
46 43 44 52 54 57 57 55 62 65 65 66 65 69 75 74 77 83 86 89 90 93 76 64 67 67 70 74 80 76 78 75 75 71 70 70 69 65 70 70 76 76 80
39 42 46 54 56 57 52 56 64 64 64 66 69 62 64 68 78 86 89 91 89 90 92 71 72 73 74 74 75 76 78 74 75 78 78 78 77 77 73 68 75 76 76
30 38 44 48 47 45 52 63 54 56 66 63 56 65 69 74 87 86 77 78 81 86 91 77 74 75 77 79 82 81 81 86 88 86 83 79 76 79 78 84 74 78 79
23 30 32 38 36 42 48 57 45 61 55 54 62 68 75 84 76 75 66 73 85 88 90 90 80 78 78 77 78 83 86 87 93 90 89 85 83 80 77 88 91 82 76
23 26 32 37 38 39 52 43 40 58 46 50 57 67 87 65 74 63 68 91 79 63 70 79 84 82 78 79 83 83 84 84 88 94 89 95 93 94 97 95 96 98 84
26 27 32 34 36 41 37 33 50 47 51 61 66 70 54 54 63 67 80 68 59 72 82 84 79 80 76 76 81 91 93 91 93 86 83 84 85 94 98 98 86 99 100
26 26 27 26 31 34 31 40 45 52 65 47 40 43 42 46 44 57 79 73 67 75 82 80 81 78 77 78 80 83 85 81 85 95 94 91 93 100 100 98 97 96 100
28 29 31 33 36 36 38 43 51 61 53 41 37 41 54 53 51 72 76 73 73 75 79 81 80 82 81 80 83 87 89 92 93 76 96 99 99 100 100 100 100 96 99
36 36 37 38 39 39 40 47 52 53 48 49 54 58 60 61 67 80 79 75 79 76 74 76 82 84 83 82 83 87 83 88 95 95 99 95 93 100 98 97 100 100 100
40 41 41 42 42 43 46 50 51 52 56 57 60 62 64 68 74 71 70 65 75 74 77 81 87 88 90 90 97 96 94 93 95 97 100 97 95 98 100 99 100 100 100
44 45 46 46 48 47 50 53 58 62 63 65 67 68 76 70 70 64 66 72 74 73 72 83 88 87 90 92 95 99 91 93 93 96 99 97 100 100 100 100 100 100 100
49 49 51 51 52 53 55 62 64 67 70 71 91 92 75 69 65 67 66 74 96 98 99 94 93 93 93 95 99 100 100 97 97 97 94 98 100 95 98 99 100 100 100

GFSMA_925_rhum_012.txt.gz
RH
62 64 67 69 68 70 70 69 70 71 74 74 73 72 70 66 64 64 54 35 33 39 53 67 64 72 73 76 80 78 78 74 73 75 76 77 78 79 80 79 79 78 77
64 57 63 67 68 68 71 72 72 72 73 75 72 71 67 68 64 62 61 59 53 44 42 56 68 59 65 69 71 77 79 80 77 77 77 79 80 81 81 80 80 79 78
61 62 63 67 66 66 68 71 73 75 75 74 73 72 70 66 64 63 62 60 59 58 53 48 62 65 59 58 61 68 74 79 83 86 86 82 82 82 83 84 84 82 80
62 62 63 63 62 65 69 71 72 74 75 77 77 75 75 73 71 69 68 66 64 63 62 60 54 56 62 60 57 58 62 66 71 76 81 86 88 88 87 86 85 85 84
65 64 64 64 65 67 70 72 75 80 81 84 84 81 82 81 78 75 75 74 72 71 70 67 64 63 60 57 64 60 58 59 61 63 67 73 79 84 86 87 88 89 87
72 71 71 72 73 75 78 80 82 84 87 86 89 88 85 83 81 80 79 77 76 75 76 74 73 71 69 67 66 71 68 67 64 63 62 62 64 69 75 82 86 87 88
87 89 89 90 91 92 92 92 92 93 94 93 97 92 88 81 79 76 73 77 75 70 74 72 72 73 72 70 66 66 74 75 74 73 71 69 67 66 67 70 74 79 84
60 61 62 64 68 78 87 97 98 100 98 93 97 94 96 80 74 69 68 72 72 73 78 74 77 74 69 65 63 58 58 61 76 78 79 80 78 74 72 70 70 72 76
43 41 40 39 40 41 52 63 87 100 99 96 94 98 98 93 86 77 70 70 71 70 70 71 72 73 72 69 67 64 59 58 57 72 76 78 80 81 80 78 75 73 73
41 38 36 36 37 41 45 50 50 56 75 94 91 90 98 99 96 93 74 77 74 72 76 75 72 73 74 74 73 66 63 64 64 65 80 80 78 77 77 80 81 81 81
41 39 37 36 36 40 45 52 53 52 54 72 81 91 92 86 87 91 89 75 72 73 78 78 79 80 78 77 77 74 70 69 68 68 82 84 84 81 79 76 77 79 81
43 41 38 38 41 45 49 53 52 47 56 63 68 77 83 87 88 90 91 84 85 76 73 72 77 81 83 84 81 79 77 77 75 73 86 82 84 85 80 79 78 78 77
42 41 36 38 43 45 49 47 49 53 58 66 65 73 78 85 88 88 87 80 79 74 74 74 73 72 74 76 79 83 84 81 78 83 88 86 86 85 86 85 83 82 79
36 27 22 22 29 32 37 46 55 59 62 64 68 71 77 75 76 78 86 90 86 77 69 69 67 65 68 68 72 76 75 75 81 81 81 87 85 83 89 86 88 88 86
18 17 21 24 24 24 27 37 61 56 49 64 73 60 62 71 74 79 90 92 90 90 77 64 67 66 70 73 75 74 80 82 83 86 89 85 84 88 88 92 89 86 79
18 21 21 23 23 22 25 32 62 40 51 70 49 52 58 70 77 86 85 86 79 84 86 63 64 69 73 77 78 78 77 75 71 68 80 89 92 92 93 89 94 92 88
19 21 22 23 23 25 26 34 46 40 52 58 48 53 62 68 84 75 83 68 67 80 93 76 59 54 59 72 81 84 80 81 85 85 77 71 86 93 94 94 99 96 99
18 21 20 22 24 28 32 38 36 40 55 50 56 63 72 79 58 66 68 57 72 86 66 78 65 66 72 70 75 79 78 81 84 88 86 81 80 84 94 95 97 97 98
19 19 21 26 28 31 34 32 40 48 51 56 63 51 41 50 48 49 53 56 70 76 75 76 76 76 74 70 77 78 74 73 80 84 84 93 85 72 73 85 92 96 99
24 24 24 26 27 30 32 36 47 52 57 67 52 45 42 44 50 60 56 59 76 84 80 81 80 80 76 73 74 78 74 74 77 78 89 86 90 85 78 80 90 99 98
25 25 26 26 30 36 35 48 51 56 58 56 52 53 55 59 61 60 66 69 75 79 73 86 88 78 75 74 80 78 80 76 77 75 82 86 84 91 97 96 98 91 100
28 29 31 35 38 40 45 51 55 58 58 57 60 60 62 64 64 69 68 65 64 66 64 71 83 75 71 72 79 83 89 86 87 74 78 84 83 91 88 90 95 99 86
33 34 36 38 42 45 49 56 58 61 65 65 66 67 69 70 78 79 73 67 68 64 63 64 72 75 77 79 89 91 81 82 89 82 83 82 81 87 90 87 92 94 99
40 40 43 46 49 52 56 60 64 67 68 69 70 73 75 90 78 67 73 92 98 71 69 80 89 98 96 97 95 85 91 93 92 97 94 94 85 90 93 88 88 92 100
43 44 51 53 56 57 61 66 67 68 69 71 73 78 92 76 69 73 84 80 71 87 79 75 81 81 80 76 78 89 96 97 96 95 95 97 93 90 99 98 97 96 95
51 54 56 58 59 62 66 69 66 67 70 72 84 90 71 66 68 70 60 69 88 72 69 85 93 91 85 82 84 88 100 98 98 96 92 100 98 99 99 97 100 100 100

GFSMA_925_rhum_018.txt.gz
RH
68 66 67 68 69 69 70 71 71 71 71 70 70 70 72 73 72 71 70 70 73 70 64 77 80 71 67 73 71 72 78 82 84 86 81 78 82 83 81 79 78 78 78
74 75 74 72 72 72 72 73 73 73 73 72 70 71 72 71 72 72 72 72 74 76 71 68 82 83 78 70 66 68 70 76 82 87 88 86 82 82 83 83 82 82 82
81 81 79 77 74 73 76 75 74 75 74 74 74 71 68 68 68 68 70 71 70 73 75 74 86 90 86 83 78 71 70 71 72 79 83 88 90 86 84 83 83 83 84
80 80 77 75 75 77 78 79 79 78 77 76 76 74 74 73 72 71 70 68 68 69 69 71 72 74 91 90 87 84 79 74 73 73 76 80 87 89 90 87 86 86 86
80 81 80 81 83 83 82 79 77 77 78 77 82 80 75 74 74 71 69 70 69 70 71 71 73 74 74 82 91 88 85 84 81 76 74 73 73 82 92 92 90 90 89
81 79 72 65 65 65 62 62 64 65 65 64 66 66 64 62 65 62 64 63 65 70 71 70 72 71 73 73 72 87 90 89 88 87 84 78 75 73 75 82 92 91 90
49 49 49 46 46 46 47 46 47 46 44 47 44 44 48 49 54 45 56 63 54 54 57 64 62 69 70 72 73 74 83 91 92 90 90 89 88 84 78 76 78 83 90
47 46 47 46 46 45 46 48 50 51 46 45 45 46 42 39 34 44 43 39 42 40 48 55 58 62 64 68 72 77 78 86 89 90 90 89 89 90 90 87 81 78 78
46 47 48 47 48 48 47 49 48 51 48 46 43 46 49 50 49 42 38 38 36 42 40 41 47 50 50 53 60 66 70 77 78 86 90 88 89 92 92 92 93 90 86
44 39 41 42 41 40 41 41 37 42 40 42 41 41 47 49 53 53 38 42 40 46 46 45 44 45 46 48 52 61 71 76 81 84 85 86 91 93 95 93 91 94 94
41 35 34 35 34 32 35 36 35 36 40 40 41 44 49 49 47 50 58 39 37 34 36 38 42 44 45 50 50 53 69 81 91 90 91 94 94 94 88 93 99 99 94
32 31 29 27 28 30 31 29 32 37 48 43 41 45 52 52 49 45 41 41 41 37 35 40 44 47 55 57 57 56 65 71 67 64 67 72 77 82 85 97 99 96 99
26 27 26 24 25 27 27 28 35 42 48 44 46 50 48 36 35 34 36 42 45 46 46 46 41 42 42 45 44 51 57 60 52 49 56 62 66 70 75 84 84 91 96
23 26 26 24 25 25 24 25 29 36 34 34 32 39 42 35 38 43 51 57 67 59 48 42 40 37 34 37 43 54 55 49 46 50 65 52 51 68 75 75 80 83 84
22 23 24 23 24 24 24 25 26 26 28 29 30 34 35 38 43 45 48 52 59 65 57 47 42 32 29 33 36 55 56 50 49 55 55 53 60 70 81 83 82 82 86
22 22 22 22 22 22 23 23 24 25 26 29 32 36 38 40 45 41 39 37 42 44 52 41 41 40 40 43 51 53 49 49 56 57 58 52 55 71 70 65 87 90 90
23 22 22 22 22 22 23 23 24 24 30 32 35 37 39 45 41 38 38 38 40 43 51 50 50 49 46 47 48 46 48 49 52 52 54 66 60 64 73 84 75 73 87
22 24 25 24 23 24 26 25 26 29 33 36 37 39 40 40 42 41 40 42 47 48 52 67 55 51 51 49 50 51 49 49 49 50 50 54 60 64 70 74 83 88 84
25 26 26 26 26 27 29 29 28 35 37 39 40 42 44 46 45 44 48 50 50 56 60 60 61 60 58 55 53 55 56 51 48 51 54 53 55 57 62 73 73 68 82
28 29 29 29 29 30 31 28 38 42 43 43 45 48 48 47 48 53 54 52 64 65 59 62 69 66 62 60 56 55 53 53 59 62 63 64 66 72 72 62 74 77 89
31 32 33 30 29 30 26 44 50 50 50 49 49 48 48 51 58 58 61 70 76 63 70 73 72 61 54 53 56 58 67 60 62 66 69 73 75 77 70 66 67 73 75
32 34 32 30 30 30 36 51 62 60 56 52 48 48 47 48 50 59 65 59 58 69 71 84 66 59 58 60 65 60 65 73 79 67 72 70 64 66 70 71 72 82 85
34 33 32 31 31 34 39 57 65 65 56 51 49 48 48 47 56 68 57 56 64 88 81 63 61 62 70 66 68 76 82 82 79 70 70 74 74 77 74 80 87 88 87
33 32 32 34 35 35 45 58 70 62 53 50 49 49 49 56 66 57 56 67 93 63 55 55 56 66 83 91 75 75 83 87 84 79 73 95 77 77 76 75 86 96 96
35 34 35 37 37 39 48 64 67 58 53 50 50 51 64 65 54 55 73 98 78 63 53 55 67 67 63 63 68 82 92 87 87 74 73 84 85 95 99 84 70 74 86
37 37 37 37 40 44 51 63 65 61 56 55 58 64 58 56 55 76 86 56 72 63 65 73 68 64 68 72 71 75 94 95 92 88 73 94 89 82 85 68 93 79 84

GFSMA_925_rhum_021.txt.gz
RH
59 56 58 60 61 63 63 64 65 64 64 63 62 62 62 63 64 65 66 67 66 68 71 81 89 90 85 78 74 76 79 80 83 84 86 88 84 83 84 80 80 81 80
67 67 68 66 66 66 65 66 66 67 68 66 64 63 62 62 61 60 62 64 65 67 70 73 85 92 94 88 84 77 74 79 80 81 85 88 90 87 85 86 84 80 82
72 73 72 72 69 67 68 68 69 70 71 70 70 70 66 61 60 60 62 63 63 64 64 68 74 86 91 94 89 87 85 79 76 78 79 82 87 88 90 88 89 87 84
71 73 72 69 71 73 75 76 73 67 63 62 62 65 68 64 62 60 62 61 61 64 65 66 68 71 80 85 88 89 88 88 88 82 79 80 80 84 88 87 88 90 89
77 77 75 70 64 63 59 58 53 53 52 50 50 49 51 52 53 52 53 55 56 59 64 66 65 68 69 70 78 84 88 91 90 91 91 88 83 81 81 82 86 88 92
51 52 48 44 44 44 42 42 41 42 42 39 39 40 39 39 42 44 53 48 54 53 44 46 54 59 64 65 67 75 83 86 90 90 91 92 92 91 87 84 84 85 91
44 44 43 41 42 41 41 44 44 47 45 44 43 43 41 41 36 37 42 38 36 36 37 36 40 46 52 60 63 58 72 81 84 86 88 90 96 96 94 90 90 85 86
42 41 44 43 43 43 43 44 42 43 42 39 40 41 44 38 35 38 32 36 35 37 40 40 41 45 46 47 47 47 52 60 65 72 76 79 86 94 95 98 95 95 92
37 36 38 37 37 37 36 36 34 35 37 35 34 39 44 43 46 38 36 35 35 33 36 38 33 34 38 41 42 42 44 52 65 67 73 79 81 81 80 87 87 98 96
37 31 31 32 32 30 30 31 28 31 31 36 36 32 37 41 51 50 33 35 31 28 26 30 30 31 35 40 44 48 53 62 80 82 80 74 78 82 81 86 94 84 88
32 30 27 27 27 28 29 30 30 31 35 39 39 37 38 41 43 42 44 36 31 28 28 30 33 35 36 38 48 55 49 53 64 68 71 74 68 66 67 70 75 80 96
28 28 25 23 24 27 28 27 29 33 41 47 42 40 39 47 44 39 40 40 40 39 38 38 41 43 41 38 41 37 38 52 56 60 61 61 61 60 68 72 73 83 84
24 25 24 22 23 25 24 24 28 33 36 39 39 35 33 37 38 35 38 44 47 47 49 45 41 33 35 36 33 32 31 36 40 49 58 58 59 58 61 60 58 59 63
22 22 23 21 21 22 22 23 26 28 26 27 30 31 32 35 34 37 41 46 55 49 39 36 36 36 33 32 36 30 37 32 37 55 56 60 55 54 59 64 58 53 65
19 20 21 20 20 21 21 22 23 24 23 25 27 30 31 34 37 38 44 44 47 53 46 38 38 36 41 41 42 45 45 49 51 52 52 48 54 63 57 60 67 72 72
19 20 20 20 20 20 21 22 23 23 24 25 28 31 34 35 37 40 43 41 41 44 50 41 42 45 47 52 47 47 47 48 48 44 45 48 51 51 54 61 66 68 68
19 20 20 21 21 22 22 23 24 24 24 28 31 33 35 36 38 39 42 42 44 44 51 48 48 55 55 50 51 52 52 53 49 45 43 46 49 48 49 55 59 62 63
20 21 22 23 23 24 25 26 26 25 27 31 34 36 38 39 42 44 44 45 47 49 51 59 59 57 52 55 58 57 54 52 50 49 48 46 45 48 52 54 57 63 69
23 24 25 26 26 27 27 27 27 28 34 37 38 40 42 44 45 45 47 51 52 55 63 67 64 57 58 64 62 51 44 45 50 49 48 51 51 54 61 62 64 66 67
26 28 29 30 29 27 27 28 30 40 44 45 46 46 46 45 45 48 52 56 63 71 72 69 62 65 66 66 57 52 51 56 60 54 53 52 54 56 58 60 75 85 79
29 30 31 31 29 28 26 32 43 50 54 54 51 48 44 44 46 48 49 57 71 83 65 65 78 83 87 62 59 56 58 60 61 62 63 65 66 68 67 64 60 60 60
31 31 31 30 29 29 30 38 47 58 60 57 52 47 45 44 43 46 54 56 61 62 61 79 87 93 71 58 56 62 67 75 82 66 68 68 65 66 66 65 63 66 67
30 31 30 30 29 32 34 40 51 63 64 55 49 47 46 45 49 60 61 61 61 60 77 74 73 75 59 58 70 82 90 82 73 68 72 78 73 80 77 73 68 65 70
30 31 30 31 32 32 35 43 55 63 57 54 50 49 49 54 62 62 60 89 89 83 68 55 60 58 60 75 92 80 71 82 87 81 75 86 89 76 79 75 78 72 73
32 33 32 33 32 31 36 47 58 60 60 57 54 54 58 62 60 61 79 97 72 60 58 57 62 60 59 60 63 73 91 90 87 79 75 77 84 96 79 78 75 70 95
33 33 33 31 30 34 41 50 55 61 62 60 62 72 63 56 60 77 79 58 66 62 85 75 66 64 64 67 67 72 88 94 91 91 69 83 85 85 91 76 80 88 74

GFSMA_925_rhum_024.txt.gz
RH
60 59 60 61 62 63 64 65 66 67 66 67 67 67 65 64 63 62 63 64 66 66 67 71 78 81 83 87 94 92 84 82 84 84 85 87 88 90 89 87 84 82 83
69 69 70 69 67 68 66 66 66 71 73 74 72 68 63 62 64 63 62 61 61 62 63 63 76 81 83 82 84 90 92 91 84 83 85 85 85 84 86 89 89 87 85
73 75 75 72 73 71 70 72 72 68 65 62 62 63 64 62 57 58 58 59 57 60 62 64 63 66 79 82 81 80 88 88 92 95 87 85 85 84 82 85 86 89 89
71 75 72 74 68 68 62 59 50 48 49 48 45 47 46 55 51 52 52 51 52 53 56 58 63 65 64 67 74 74 76 80 80 84 90 94 92 88 86 83 83 88 92
70 63 51 48 45 45 42 42 41 43 46 45 45 42 42 40 39 40 40 45 48 42 39 38 38 43 49 56 67 73 75 79 83 84 82 85 93 95 94 93 90 88 88
46 44 42 42 41 42 43 45 44 45 44 45 42 41 41 35 38 42 42 33 24 25 32 36 37 40 44 45 53 59 65 70 74 74 86 90 93 95 96 98 97 99 94
41 40 42 42 41 41 42 41 40 38 37 38 37 42 32 37 29 36 21 28 24 29 37 39 38 42 39 36 37 46 53 54 57 58 62 72 76 79 84 85 94 98 98
36 35 33 35 34 33 34 33 32 34 35 34 42 41 61 40 38 24 35 35 34 34 23 28 31 23 24 30 28 26 30 39 48 62 67 71 75 80 82 81 85 87 93
29 27 28 27 30 29 30 29 29 31 34 33 38 43 66 64 48 39 38 36 31 22 32 25 20 25 26 28 37 39 39 42 56 61 66 71 75 74 75 78 78 79 84
30 24 25 25 26 27 28 27 28 30 35 41 45 39 39 42 55 58 43 39 32 29 29 30 31 33 39 38 35 37 46 57 54 58 61 65 65 65 74 74 74 75 76
28 26 24 23 24 25 24 26 26 30 36 41 50 46 44 43 40 59 59 43 38 35 36 38 43 39 42 34 43 34 41 42 46 47 50 55 58 61 63 67 77 76 80
25 24 23 22 22 23 24 24 25 24 30 32 36 37 42 43 43 47 53 46 43 39 41 44 45 44 36 29 34 35 35 44 45 46 50 48 44 41 46 61 62 62 66
23 21 22 21 21 22 22 22 23 23 27 27 30 27 32 33 36 43 42 46 48 43 47 44 41 37 36 36 35 33 44 42 41 45 42 42 48 50 53 57 54 52 54
20 19 20 20 20 20 20 21 22 23 24 25 25 26 28 30 34 37 43 50 52 54 47 42 40 38 38 42 42 44 44 54 47 44 45 48 51 51 53 49 48 57 56
20 20 20 19 19 20 21 21 22 24 24 24 25 27 29 34 36 37 40 44 55 62 55 45 44 44 46 47 49 56 51 49 48 48 53 48 50 48 50 49 50 52 54
19 19 20 20 21 22 22 23 25 25 25 25 27 30 33 37 39 40 42 45 48 51 60 47 48 50 48 53 57 52 51 53 54 56 52 48 48 51 48 49 48 51 46
20 20 22 22 24 25 25 26 27 27 27 27 31 36 39 40 42 44 46 49 50 51 59 55 52 52 64 59 56 56 57 59 60 54 46 43 42 45 47 50 47 48 54
22 23 24 26 27 28 28 28 28 28 29 37 41 45 46 46 48 48 50 49 52 54 55 61 63 68 62 62 59 60 65 63 62 52 47 44 51 57 50 51 56 55 52
24 26 28 29 30 31 30 29 28 31 39 45 51 53 54 53 52 50 48 51 52 55 66 76 74 70 68 62 65 70 72 62 56 51 45 51 51 52 54 54 54 56 60
27 28 30 31 32 32 30 29 30 37 45 54 60 60 59 56 52 50 50 50 54 63 72 73 82 92 68 69 75 96 66 58 53 53 59 59 61 60 57 59 60 62 62
29 30 31 32 32 31 30 32 39 44 50 59 64 64 60 52 51 48 49 54 60 59 75 97 91 82 78 78 75 65 60 56 62 64 67 77 63 65 66 66 65 66 67
29 30 31 31 31 31 34 38 41 46 54 63 67 62 57 53 50 52 55 54 56 75 83 96 94 80 60 59 66 71 69 74 85 75 69 68 69 72 73 75 72 73 74
30 31 32 32 32 33 36 38 41 48 56 62 63 60 58 55 57 61 67 70 96 87 76 68 64 62 62 84 96 87 88 92 89 79 78 79 75 76 80 76 69 67 71
32 33 34 34 34 34 34 37 44 51 57 61 62 62 62 62 69 65 70 91 95 87 72 67 60 63 79 70 70 70 73 81 84 79 75 92 76 90 74 75 77 72 69
34 34 34 34 33 32 34 41 47 52 57 60 63 65 70 73 68 64 74 98 87 72 72 60 78 76 61 60 62 68 91 93 86 77 75 82 82 88 76 80 79 74 82
35 34 34 33 31 33 37 45 49 55 58 63 67 81 79 67 59 73 80 66 73 64 71 88 67 66 67 72 72 76 88 94 92 89 69 82 84 88 90 70 79 84 75

GFSMA_925_rhum_027.txt.gz
RH
62 65 66 66 67 66 67 67 69 69 68 70 71 70 67 66 64 65 67 66 64 64 63 70 70 70 76 82 87 84 82 87 96 92 88 88 86 85 86 87 89 88 84
69 70 71 71 70 69 72 72 73 69 66 62 61 59 58 60 56 51 49 54 55 54 55 59 69 70 68 67 75 77 76 81 86 87 92 94 91 88 82 82 86 88 90
74 76 74 71 70 68 66 63 54 52 51 47 46 42 42 41 49 47 40 44 49 51 49 50 48 67 72 77 80 80 71 71 78 83 86 80 81 92 94 89 87 86 86
73 72 62 54 48 46 47 46 41 39 42 43 43 42 41 37 32 34 42 44 40 31 28 28 33 37 42 60 65 68 68 72 80 83 88 90 92 88 90 93 95 92 89
52 56 49 42 42 42 41 42 41 41 36 37 34 28 28 17 26 42 42 27 20 19 24 36 34 38 40 41 50 54 56 58 61 65 66 73 79 86 90 94 96 99 98
46 42 38 37 37 40 39 36 32 27 29 32 25 35 16 28 35 36 19 13 24 19 37 28 20 25 28 27 38 42 42 44 44 45 49 50 60 70 75 79 80 83 89
34 34 32 28 27 31 32 27 27 26 23 30 40 35 23 28 31 24 10 33 16 37 32 20 25 26 22 17 18 31 46 48 48 50 58 61 63 67 72 72 76 76 80
27 25 25 25 24 25 24 24 28 28 30 35 48 51 63 45 33 18 37 23 40 32 20 28 16 21 24 28 38 45 45 42 39 51 49 53 57 59 61 62 62 61 75
26 24 23 22 22 22 22 23 26 30 39 35 36 47 64 69 46 39 28 38 36 27 34 26 31 34 35 43 41 40 40 48 56 58 61 63 62 62 68 70 71 76 78
27 22 21 22 22 22 20 24 24 28 25 38 32 44 45 43 70 62 44 35 39 40 39 37 37 39 47 40 41 29 41 47 52 53 54 57 56 52 52 54 56 64 68
25 22 20 21 21 21 22 22 23 23 24 36 32 34 42 36 43 59 50 44 43 40 38 40 40 45 44 43 33 33 45 49 46 48 46 46 45 50 56 50 48 47 50
23 20 19 19 20 20 21 21 22 21 24 24 27 31 32 42 50 46 46 46 47 40 42 42 45 47 42 38 38 36 44 43 45 50 52 52 53 50 50 50 61 67 60
20 19 19 18 19 19 20 20 21 22 22 25 25 25 25 32 33 41 46 47 46 45 42 45 44 44 42 41 41 51 49 46 52 58 54 51 50 51 53 55 50 49 51
20 19 18 18 18 19 20 21 22 23 24 25 25 26 29 29 32 39 45 51 57 47 47 45 46 46 45 47 52 49 47 58 54 49 50 50 49 52 51 58 53 50 52
18 17 18 18 19 21 23 24 25 26 26 27 27 29 30 33 40 42 44 49 55 68 58 50 50 49 52 53 50 54 58 55 49 51 52 52 53 57 55 50 47 46 52
18 18 19 20 22 24 26 28 28 27 28 28 32 35 38 42 47 48 49 51 53 57 69 52 51 52 52 54 61 60 57 57 55 52 54 55 55 72 52 51 49 46 52
19 20 22 24 26 28 29 30 29 29 29 34 36 43 50 52 55 56 56 56 58 58 62 55 53 54 59 66 62 63 66 60 59 60 61 61 60 55 53 50 46 67 57
21 22 25 27 29 30 31 32 31 30 33 38 44 52 57 61 62 62 60 58 56 55 57 60 60 69 71 66 66 74 66 65 71 87 64 58 55 50 50 48 52 54 53
22 24 28 30 31 32 32 31 31 32 39 43 50 58 62 66 67 65 62 58 57 57 66 79 86 74 67 86 83 76 86 73 75 57 52 51 48 49 53 57 64 64 55
24 27 29 30 31 32 31 32 36 41 44 48 52 56 62 68 68 62 58 57 62 64 63 64 69 89 76 80 85 71 56 56 62 66 60 59 61 62 63 58 57 61 62
27 29 30 31 32 32 33 39 43 44 45 48 52 59 64 65 60 57 57 58 61 66 88 96 83 92 88 64 60 60 63 67 76 71 72 71 77 85 69 66 67 68 68
28 31 32 33 33 34 39 42 44 44 46 50 56 60 64 65 62 59 60 61 64 69 76 93 95 86 67 65 66 66 77 92 89 71 76 86 73 72 73 74 73 69 77
31 33 33 34 34 34 39 40 43 46 49 51 57 61 65 66 68 75 76 70 75 83 89 78 74 74 73 70 82 96 93 89 86 80 78 82 76 75 77 76 66 70 67
33 35 34 34 34 32 39 41 46 51 55 58 60 63 67 74 85 71 72 77 97 94 79 73 70 72 88 89 70 69 76 87 90 80 73 86 75 77 74 75 75 71 68
34 34 34 34 33 36 41 48 54 61 62 64 66 69 80 77 70 62 74 98 96 87 65 63 81 73 63 62 66 85 93 93 86 76 73 79 82 84 80 81 79 76 80
35 35 34 33 35 42 52 60 64 66 66 67 82 90 77 64 58 85 85 78 75 64 83 91 67 67 71 75 76 84 95 94 92 90 68 85 90 89 91 72 74 79 78

GFSMA_925_rhum_030.txt.gz
RH
64 65 66 71 73 72 73 76 77 75 72 67 64 61 58 57 58 54 55 51 55 50 52 70 73 73 78 74 77 75 78 80 79 87 87 90 93 93 88 84 80 88 90
70 74 78 77 74 74 75 68 62 57 54 52 53 50 45 43 43 43 42 39 40 45 44 53 57 60 62 69 74 77 79 79 83 80 82 88 90 93 98 98 92 87 86
76 77 70 64 59 57 56 54 50 44 37 36 35 34 33 32 31 26 34 40 33 29 24 32 52 56 65 64 64 65 64 69 71 72 78 81 87 94 96 95 96 99 97
71 74 60 51 47 50 46 42 37 34 30 25 22 18 17 17 18 35 43 26 24 21 22 34 27 35 42 48 50 53 57 59 59 59 60 60 64 69 74 83 87 90 96
65 62 52 43 40 38 36 34 28 23 22 19 15 18 15 15 36 39 24 13 33 20 37 29 27 24 22 40 44 45 45 48 53 56 57 57 58 62 62 67 72 75 79
50 41 34 31 28 26 26 22 20 18 26 24 22 20 13 22 33 30 14 25 21 23 34 24 24 20 13 37 37 44 51 56 53 51 49 50 52 53 57 65 67 69 72
32 28 25 25 24 24 22 20 18 18 24 26 38 26 19 30 31 24 24 25 17 41 30 25 27 16 19 24 42 53 55 54 51 48 49 63 65 65 63 62 61 59 58
26 25 24 23 22 19 17 20 23 24 28 31 39 60 66 45 37 15 37 23 38 19 25 23 25 28 34 37 47 50 46 48 46 46 55 61 61 60 59 59 60 59 62
25 24 22 21 20 18 18 22 24 23 29 31 42 44 59 66 54 37 26 39 24 40 28 38 34 37 38 48 45 41 48 42 41 54 54 53 57 59 57 56 55 53 54
25 22 20 20 19 19 19 21 23 21 25 38 31 34 41 46 63 66 44 38 36 35 40 40 38 43 37 47 45 43 42 44 43 49 53 52 55 54 53 53 53 52 53
23 21 18 18 18 19 20 20 21 22 25 27 33 40 40 35 33 75 54 43 38 40 40 39 42 42 44 45 43 42 43 44 52 56 52 55 56 53 53 52 52 50 52
21 20 18 17 18 18 19 20 22 22 24 25 27 26 29 43 52 50 44 44 47 41 40 43 41 42 44 45 44 46 47 54 55 52 55 58 60 54 54 52 54 56 52
20 19 17 16 17 19 21 22 23 24 25 26 27 28 31 34 34 40 46 50 50 48 45 44 45 45 45 47 46 49 54 52 52 56 58 55 54 54 53 52 53 53 54
19 18 18 17 18 21 23 24 25 26 26 26 28 29 34 33 37 42 52 58 62 52 52 50 47 49 51 49 51 51 52 52 53 54 54 53 53 52 53 53 50 55 72
18 17 18 18 21 24 26 27 28 28 28 29 30 34 36 40 47 51 54 58 66 76 64 54 56 54 51 52 53 53 54 60 58 57 54 53 53 54 53 53 52 60 68
17 17 17 21 24 27 29 30 30 30 30 30 35 40 45 50 57 59 61 64 65 67 75 60 58 54 54 56 58 59 63 64 64 58 58 56 56 58 68 66 67 75 76
18 18 22 25 27 29 30 32 32 31 32 34 41 46 51 56 61 64 68 69 69 67 72 62 59 60 65 70 69 70 70 70 75 67 60 53 52 56 59 55 62 59 49
19 23 25 27 29 31 31 32 32 33 38 42 44 49 53 59 61 67 70 71 70 68 66 72 79 75 67 63 65 70 86 84 76 68 55 54 55 57 53 51 52 53 52
22 25 28 30 31 32 32 32 36 42 44 45 47 51 54 58 64 68 71 72 66 64 69 67 67 64 64 75 81 80 79 57 57 53 51 52 54 56 57 60 62 75 71
24 27 30 31 32 32 32 37 44 46 46 46 47 50 54 58 64 70 67 64 71 67 68 72 80 89 82 72 96 68 61 59 61 60 62 67 67 61 60 60 62 64 62
27 30 32 31 32 33 36 46 47 46 47 48 50 52 57 62 64 61 62 66 68 82 95 96 76 75 94 69 66 65 68 67 67 78 88 67 67 72 75 70 67 64 65
30 32 33 33 33 34 44 46 48 49 51 54 58 59 61 67 66 65 66 65 68 68 69 78 96 78 71 70 71 70 79 94 87 67 66 72 73 73 74 74 72 71 68
32 33 33 34 34 33 45 49 53 57 60 63 63 64 67 70 77 83 78 65 70 80 95 77 78 75 72 74 92 95 85 84 85 79 82 82 75 75 73 73 70 70 69
34 34 34 34 34 36 50 57 62 66 66 66 67 69 71 85 78 64 65 84 97 85 83 70 65 77 92 79 71 82 92 95 94 83 74 91 78 79 77 77 75 74 75
35 35 34 34 36 43 51 61 65 66 68 69 70 73 85 75 66 67 96 83 79 74 62 72 82 70 66 66 75 94 93 92 86 74 73 82 83 85 84 84 81 77 77
36 36 35 37 42 49 54 64 64 65 69 71 82 94 80 68 67 87 64 68 72 69 95 94 70 69 75 78 79 88 97 94 92 89 68 86 89 88 92 72 73 72 72

GFSMA_925_rhum_033.txt.gz
RH
72 66 70 76 76 75 75 76 72 67 64 61 54 53 51 48 44 42 41 42 42 41 52 61 62 65 68 71 74 78 81 84 87 89 90 91 92 95 94 94 98 97 92
76 82 81 78 72 69 66 63 60 54 48 44 40 35 32 29 28 25 30 35 32 30 32 60 60 66 67 64 64 66 68 70 72 74 76 80 82 84 89 94 95 95 97
81 75 65 59 56 55 52 49 44 36 31 27 22 18 16 18 16 23 38 26 30 21 26 50 57 55 55 54 56 59 60 60 59 61 64 65 66 66 68 73 79 88 91
69 72 67 58 49 47 42 35 30 23 21 18 15 14 15 13 21 42 24 20 29 21 28 30 29 31 42 46 50 50 52 54 60 65 64 62 60 63 68 72 70 71 78
65 64 53 46 37 31 26 23 20 17 19 15 12 14 11 16 41 32 19 25 21 23 33 28 26 22 24 43 45 50 54 62 63 63 60 60 59 63 64 63 61 65 72
59 47 32 27 25 24 22 18 16 15 26 16 12 11 15 23 40 28 16 23 24 29 25 27 20 17 17 40 44 53 59 57 55 56 56 54 56 61 68 69 69 65 64
33 27 26 25 23 22 17 16 15 15 20 21 21 25 19 31 35 32 16 26 22 25 18 17 14 20 16 30 35 53 58 54 56 54 52 54 65 65 65 64 63 62 62
26 26 25 24 21 17 16 17 18 17 19 31 48 61 63 36 36 20 18 19 23 24 22 18 24 24 31 38 30 53 51 50 50 50 54 58 59 63 61 61 62 60 59
26 25 24 22 19 17 17 20 20 20 28 26 40 34 47 58 63 32 27 34 30 33 25 29 30 34 41 39 36 49 49 50 50 54 56 58 61 61 61 60 59 58 58
25 23 21 19 18 17 17 20 20 22 25 33 28 29 33 46 58 61 42 35 36 32 34 35 37 41 37 38 48 45 49 48 51 55 60 64 63 62 61 59 56 55 55
23 21 18 17 16 17 18 19 20 22 24 27 32 37 38 34 42 72 53 46 35 32 36 41 43 39 41 43 45 45 49 50 53 58 62 62 62 61 60 59 61 58 53
22 19 16 16 16 17 19 21 22 23 25 26 27 29 34 45 55 55 53 45 43 37 40 41 42 41 44 46 45 50 50 52 57 58 58 59 61 60 58 57 58 56 57
20 17 16 16 17 20 22 23 25 26 27 27 29 30 34 37 39 44 51 51 50 49 48 48 46 47 44 46 50 51 54 55 53 54 56 59 60 58 58 56 56 55 54
18 17 17 18 20 22 25 26 28 28 28 28 29 31 36 38 46 51 58 64 70 56 53 51 53 53 54 54 54 53 54 54 54 55 56 58 58 57 54 55 54 54 53
18 18 19 21 24 26 28 29 29 30 30 30 31 36 42 46 51 54 57 65 74 81 69 56 59 60 60 59 58 58 58 59 57 58 58 58 54 55 58 61 62 69 66
18 18 20 24 26 29 30 30 30 30 31 33 35 42 45 49 53 56 58 64 72 77 85 65 65 64 63 66 65 63 64 64 64 60 57 58 65 60 56 57 53 54 53
19 20 24 26 28 29 30 29 29 32 37 41 43 46 47 50 54 58 60 66 76 78 81 71 68 69 71 62 61 62 65 68 71 73 73 66 53 52 54 60 67 70 65
21 24 26 28 29 30 28 28 32 39 44 46 47 47 48 50 56 60 64 73 76 76 78 84 85 71 64 64 67 71 80 89 96 76 55 52 51 51 52 56 69 70 68
24 26 28 30 29 30 29 29 42 46 48 47 48 49 51 55 61 65 68 75 78 76 83 80 73 71 72 78 81 94 85 70 61 56 54 56 57 59 60 70 70 71 74
26 28 30 30 30 30 29 39 48 49 49 50 53 56 58 60 64 70 68 66 79 72 74 80 82 82 77 89 84 65 60 61 63 64 66 68 70 66 62 61 61 62 65
29 30 30 29 29 30 33 50 52 54 56 59 63 62 62 68 66 63 64 65 69 80 88 82 78 94 77 65 64 67 69 68 77 86 87 73 68 67 68 68 68 67 67
30 32 31 31 31 31 39 53 58 62 66 66 63 62 64 70 69 68 68 67 67 64 85 97 86 76 71 70 71 73 88 89 82 70 71 81 76 74 75 75 73 73 72
32 32 32 32 32 33 47 57 62 68 66 64 65 66 70 73 80 85 82 69 86 95 75 73 76 75 72 74 98 95 89 91 85 78 86 91 78 77 74 73 72 73 73
34 34 33 33 35 37 54 59 65 68 65 65 67 70 74 85 87 69 80 99 80 75 73 68 67 79 96 81 71 82 96 96 92 80 73 92 79 80 77 78 78 77 78
34 34 35 37 41 48 55 63 67 66 66 68 70 82 87 82 70 73 90 77 71 74 66 74 90 74 68 72 79 96 92 92 84 73 73 80 81 84 84 84 80 77 76
35 36 36 41 48 54 55 67 67 66 68 69 83 79 75 69 67 86 67 69 76 72 95 95 72 75 80 83 80 90 98 94 91 89 67 86 89 89 91 71 69 71 79

GFSMA_925_rhum_039.txt.gz
RH
75 72 67 70 76 79 70 68 65 60 56 46 39 31 25 23 22 21 26 29 33 52 67 71 70 72 69 69 71 72 71 73 74 74 76 78 79 79 79 79 80 83 87
76 68 77 79 79 66 61 58 55 48 40 30 22 18 18 19 16 24 27 30 29 42 68 67 65 64 64 62 64 64 65 67 68 75 78 77 76 75 74 75 78 79 78
76 77 79 70 60 57 52 46 38 28 22 20 17 16 17 14 19 27 29 29 26 25 51 58 56 55 57 58 59 60 60 63 67 71 74 73 72 72 73 73 72 72 72
80 80 66 60 56 50 37 25 22 21 20 17 16 15 14 17 33 28 27 27 24 21 21 19 17 18 44 49 52 56 60 62 65 70 67 67 68 67 68 67 67 72 76
76 65 58 50 42 27 24 23 21 18 16 15 14 14 16 25 32 26 23 25 24 22 22 19 13 10 10 40 49 56 58 56 63 66 64 66 67 65 64 64 68 69 70
65 59 48 32 25 26 24 19 16 15 14 13 14 14 23 27 40 30 29 21 23 24 23 21 17 15 9 16 50 52 51 57 62 63 64 66 63 65 66 68 70 68 68
53 46 27 26 27 26 19 16 14 14 16 14 21 25 23 20 38 39 23 19 27 25 22 21 18 16 23 17 34 46 52 54 62 60 62 64 64 66 69 68 68 67 66
32 26 27 28 24 19 16 14 13 17 22 23 31 39 29 23 27 27 22 25 22 27 18 18 17 22 29 35 36 47 50 55 58 58 61 63 65 68 66 66 64 63 62
27 28 27 25 19 16 14 15 15 15 31 32 25 27 25 25 37 31 25 30 32 27 29 32 32 31 36 37 40 46 51 56 56 59 63 66 66 66 65 63 63 63 61
27 26 24 19 16 14 15 16 18 18 20 33 32 29 27 38 29 28 34 32 36 32 36 36 34 38 34 40 45 50 53 57 59 61 64 66 66 64 62 62 61 59 58
24 21 18 16 15 15 16 18 20 21 22 29 36 38 40 39 50 46 32 29 33 35 38 38 40 40 40 44 48 50 54 58 61 63 64 64 63 62 61 60 59 58 59
20 18 16 15 15 16 18 20 22 23 24 25 26 31 38 36 35 38 38 37 40 35 41 43 42 39 40 45 50 53 57 63 65 62 62 63 62 61 60 58 58 57 60
18 17 16 16 17 18 20 23 24 24 25 26 28 33 33 45 47 47 48 43 43 44 43 41 42 42 45 48 50 60 63 61 61 61 62 63 61 60 58 58 57 56 58
19 17 17 17 19 21 24 24 24 25 26 27 30 32 34 43 49 52 52 52 53 39 38 38 42 47 52 54 63 65 61 61 62 63 60 59 58 58 57 56 55 59 70
19 18 18 20 22 24 25 24 23 23 25 30 34 39 42 47 50 56 58 59 58 57 52 42 45 49 58 62 61 62 63 62 65 65 65 63 62 62 67 70 70 69 69
18 18 20 22 25 26 25 23 22 23 28 36 45 47 49 51 55 58 61 63 64 63 65 50 56 60 62 62 64 66 63 69 69 68 65 63 61 59 62 69 68 66 64
18 20 22 25 26 26 24 22 22 29 38 45 48 52 53 56 60 62 64 66 65 65 65 64 64 65 64 61 61 66 70 73 72 63 62 62 63 63 61 64 69 71 70
21 22 25 26 26 24 23 23 27 39 49 52 55 57 62 62 63 62 62 64 70 69 72 74 72 68 59 64 68 77 70 63 62 61 60 62 64 63 63 63 66 69 70
23 26 27 26 24 24 24 25 37 51 56 60 62 65 66 63 62 62 68 73 73 75 79 78 68 68 71 80 73 64 58 58 59 60 62 64 65 68 70 72 70 67 69
26 27 27 26 25 25 25 34 50 58 61 64 67 66 66 66 68 74 77 74 76 73 70 74 76 90 75 65 67 64 61 63 65 68 73 71 69 68 68 68 69 69 69
28 28 28 26 26 26 29 54 60 62 63 68 69 64 66 71 75 74 72 72 70 76 84 85 94 71 70 65 62 64 67 71 79 69 70 69 65 68 73 73 72 72 74
30 29 28 28 29 29 31 60 64 65 68 72 68 66 68 69 77 74 72 71 73 76 93 94 81 72 62 63 67 72 90 83 79 68 69 75 74 74 72 70 70 72 73
31 30 29 30 30 31 44 64 65 68 71 70 68 68 70 73 76 81 82 79 78 96 78 75 70 67 71 72 93 94 85 86 83 78 81 80 73 71 68 68 68 72 75
31 31 31 31 32 36 47 65 68 71 72 70 69 71 76 76 78 78 75 96 94 75 69 70 70 77 92 90 78 80 90 92 88 78 69 82 72 72 72 73 73 75 77
32 32 33 34 39 42 49 70 71 70 70 71 73 75 76 70 71 66 87 92 71 68 68 72 86 84 74 76 82 94 91 89 82 72 73 75 72 78 81 79 76 73 73
34 33 32 40 45 50 50 71 71 70 72 69 72 69 68 73 68 77 77 73 75 68 85 96 70 68 74 78 84 84 90 94 89 87 63 83 86 84 82 62 65 72 77